Probability
61 55 55 55 55 48 52 55 35 16 10 19 19 13 23 26 13 6 10 3 0 0 0 0 0 0 0 0 0 0 0 0 0 0 0 3 10 10
61 58 55 52 61 58 52 45 39 35 16 23 26 19 13 3 3 3 13 6 0 0 0 0 0 0 0 0 0 0 0 0 0 0 0 0 0 0
52 52 48 48 55 55 52 52 52 39 29 23 26 19 23 19 10 16 10 6 6 0 0 0 0 0 0 0 0 0 0 0 0 0 0 0 0 0
35 39 42 42 45 45 45 39 39 39 29 16 23 19 19 19 16 16 10 6 10 3 0 0 0 0 0 0 0 0 0 0 0 0 0 0 0 0
32 35 35 35 35 39 35 32 32 16 26 19 13 13 16 13 13 10 10 13 6 3 0 0 0 0 0 0 0 0 0 0 0 0 0 0 0 0
23 29 29 19 23 26 16 19 23 19 16 13 10 13 13 10 6 3 3 3 3 3 3 0 0 0 0 0 0 0 0 0 0 0 0 0 0 0
19 19 16 16 13 16 16 19 19 19 16 13 13 10 10 6 6 3 3 3 3 3 3 6 6 6 0 0 0 0 0 0 0 0 0 0 0 0
19 19 16 10 6 6 3 3 6 10 13 10 10 10 10 10 10 6 3 3 0 6 3 3 3 0 3 3 0 0 0 0 0 0 0 0 0 0
19 19 13 6 6 6 6 3 3 3 3 10 13 13 13 13 10 10 6 6 6 6 3 3 0 0 0 0 0 0 0 0 0 0 0 0 0 0
16 13 10 10 6 10 10 6 6 10 6 3 10 10 13 13 6 6 10 10 10 10 3 0 0 0 0 0 0 0 0 0 0 0 0 0 0 0
13 13 10 10 10 3 10 10 10 10 6 3 3 0 0 0 0 6 6 0 0 0 3 3 0 0 0 0 0 0 0 0 0 0 0 0 0 0
6 6 6 6 3 3 6 10 10 10 10 3 0 0 0 0 0 0 0 0 0 0 3 0 0 0 0 0 0 0 0 0 0 0 0 0 0 0
6 6 3 3 3 0 0 0 6 3 6 10 3 0 0 0 0 0 0 0 0 0 3 0 0 0 0 0 0 0 0 0 0 0 0 0 0 0
6 10 3 0 0 0 0 0 0 0 3 6 3 3 3 3 3 0 0 0 0 0 3 0 0 0 0 0 0 0 0 0 0 0 0 0 0 0
3 0 0 0 0 0 0 0 0 0 0 0 0 3 3 3 0 0 0 0 0 3 3 3 0 0 0 0 0 0 0 0 0 0 0 0 0 0
3 0 0 0 0 0 0 0 0 0 0 0 3 3 3 3 3 3 0 0 0 0 0 0 3 3 0 0 0 0 0 0 0 0 0 0 0 0
0 3 3 0 0 0 3 3 3 3 0 3 0 0 3 3 3 3 0 0 0 0 0 0 0 0 0 0 0 0 0 0 0 0 0 0 0 0
0 3 3 3 0 0 0 0 0 0 0 0 0 0 0 0 0 0 0 0 0 0 0 0 0 0 0 0 0 0 0 0 0 0 0 0 0 0
0 0 0 0 0 0 0 0 0 0 0 0 0 0 0 0 0 0 0 0 0 0 0 0 0 0 0 0 0 0 0 0 0 0 0 0 0 0
0 0 0 0 0 0 0 0 0 0 0 0 0 0 0 0 0 0 0 0 0 0 0 0 0 0 0 0 0 0 0 0 0 0 0 0 0 0
0 0 0 0 0 0 0 0 0 0 0 0 0 0 0 0 0 0 0 0 0 0 0 0 0 0 0 0 0 0 0 0 0 0 0 0 0 0
0 0 0 0 0 0 0 0 0 0 0 0 0 0 0 0 0 0 0 0 0 0 0 0 0 0 0 0 0 0 0 0 0 0 0 0 0 0
0 0 0 0 0 0 0 0 0 0 0 0 0 0 0 0 0 0 0 0 0 0 0 0 0 0 0 0 0 0 0 0 0 0 0 0 0 0
Height
5886 5885 5884 5883 5882 5881 5880 5879 5879 5877 5876 5875 5874 5872 5870 5868 5867 5867 5865 5864 5862 5861 5860 5858 5857 5856 5854 5853 5852 5850 5849 5848 5847 5846 5845 5844 5843 5842
5883 5882 5881 5880 5879 5878 5877 5876 5875 5874 5872 5871 5870 5868 5866 5865 5864 5862 5861 5859 5857 5855 5854 5852 5851 5849 5848 5846 5845 5844 5842 5841 5840 5838 5837 5836 5834 5834
5880 5879 5878 5877 5876 5874 5873 5872 5871 5870 5868 5867 5865 5863 5862 5861 5859 5857 5855 5854 5851 5850 5848 5846 5844 5843 5841 5839 5837 5836 5834 5833 5831 5830 5828 5827 5826 5825
5878 5876 5875 5874 5872 5871 5870 5868 5866 5865 5864 5862 5860 5859 5857 5855 5853 5851 5849 5847 5845 5843 5841 5839 5837 5835 5833 5831 5829 5827 5826 5824 5822 5821 5820 5818 5817 5815
5874 5873 5872 5870 5869 5867 5865 5864 5862 5861 5859 5857 5855 5853 5851 5849 5847 5845 5843 5841 5839 5836 5834 5831 5829 5827 5824 5822 5820 5818 5817 5815 5813 5812 5810 5808 5806 5804
5871 5869 5868 5866 5865 5863 5861 5859 5857 5856 5854 5852 5850 5848 5845 5843 5841 5838 5835 5833 5831 5828 5826 5823 5821 5818 5816 5813 5811 5809 5807 5805 5803 5801 5799 5797 5795 5793
5867 5865 5864 5862 5860 5858 5856 5854 5853 5851 5848 5846 5844 5841 5839 5836 5834 5831 5828 5825 5822 5820 5817 5815 5812 5809 5807 5804 5801 5799 5797 5794 5792 5790 5787 5785 5783 5780
5863 5861 5859 5858 5855 5853 5851 5849 5847 5845 5843 5840 5837 5835 5832 5829 5826 5823 5821 5818 5815 5812 5809 5806 5803 5800 5797 5794 5791 5789 5786 5783 5780 5778 5775 5772 5770 5767
5859 5857 5855 5853 5851 5849 5846 5844 5841 5839 5836 5834 5831 5828 5825 5822 5819 5816 5813 5810 5807 5803 5800 5797 5794 5791 5788 5784 5781 5778 5775 5771 5768 5765 5762 5759 5757 5754
5855 5852 5850 5848 5846 5843 5841 5838 5836 5833 5830 5827 5825 5821 5818 5814 5811 5808 5805 5801 5798 5794 5791 5788 5785 5781 5778 5774 5771 5767 5764 5760 5757 5753 5750 5746 5743 5740
5850 5847 5845 5842 5840 5838 5835 5832 5830 5827 5823 5820 5817 5814 5810 5807 5803 5800 5796 5793 5790 5786 5782 5778 5775 5771 5767 5764 5760 5756 5753 5749 5745 5741 5737 5733 5730 5727
5845 5842 5839 5837 5834 5832 5829 5826 5823 5820 5817 5813 5810 5806 5802 5799 5795 5791 5787 5784 5780 5777 5772 5768 5764 5761 5757 5753 5749 5745 5741 5737 5733 5729 5725 5721 5717 5714
5839 5836 5834 5831 5829 5826 5823 5820 5816 5813 5810 5806 5802 5799 5795 5790 5786 5782 5778 5774 5770 5766 5762 5758 5754 5750 5746 5742 5738 5733 5729 5724 5720 5716 5712 5709 5705 5701
5834 5831 5828 5825 5823 5820 5816 5813 5809 5806 5802 5798 5795 5791 5787 5782 5778 5774 5769 5765 5761 5757 5752 5748 5743 5739 5735 5730 5726 5721 5717 5712 5708 5704 5700 5696 5692 5689
5828 5825 5822 5819 5816 5813 5810 5806 5802 5799 5795 5791 5787 5783 5778 5774 5769 5765 5760 5756 5751 5746 5742 5737 5733 5728 5724 5719 5715 5710 5706 5701 5697 5692 5688 5684 5680 5677
5822 5820 5817 5813 5810 5807 5803 5799 5795 5791 5787 5783 5778 5774 5770 5765 5760 5756 5751 5747 5742 5738 5732 5727 5722 5717 5713 5708 5704 5699 5694 5690 5685 5681 5677 5672 5668 5665
5817 5814 5811 5807 5804 5800 5796 5792 5788 5784 5779 5775 5770 5766 5761 5756 5752 5747 5742 5737 5732 5728 5723 5718 5712 5707 5702 5697 5693 5688 5683 5679 5674 5670 5665 5661 5657 5653
5811 5808 5805 5801 5797 5793 5789 5785 5780 5776 5771 5767 5762 5757 5753 5748 5743 5738 5733 5728 5723 5718 5712 5707 5702 5697 5692 5687 5682 5677 5673 5668 5664 5659 5655 5651 5647 5643
5805 5801 5798 5794 5790 5785 5781 5777 5773 5768 5763 5759 5754 5749 5744 5739 5734 5729 5724 5719 5713 5708 5703 5698 5692 5687 5682 5678 5672 5667 5663 5658 5654 5649 5645 5640 5636 5632
5798 5794 5790 5786 5782 5778 5773 5769 5764 5760 5755 5750 5745 5741 5735 5730 5725 5720 5715 5710 5704 5699 5694 5688 5683 5677 5672 5667 5663 5658 5652 5648 5643 5639 5635 5630 5626 5622
5791 5787 5783 5778 5774 5770 5765 5761 5756 5751 5747 5742 5737 5732 5727 5722 5717 5711 5706 5701 5695 5690 5684 5679 5673 5668 5662 5657 5653 5648 5643 5638 5634 5629 5625 5621 5617 5612
5783 5779 5775 5771 5766 5762 5757 5753 5748 5743 5739 5734 5729 5724 5719 5713 5708 5703 5698 5692 5687 5681 5675 5670 5664 5658 5653 5648 5643 5639 5634 5630 5625 5620 5615 5611 5607 5603
5776 5772 5767 5763 5759 5754 5749 5745 5740 5735 5731 5726 5721 5716 5711 5705 5700 5695 5689 5684 5678 5672 5667 5661 5656 5650 5644 5639 5634 5629 5625 5620 5616 5611 5607 5602 5598 5594
Wind_Speed
12 13 14 14 15 15 15 16 16 15 15 16 15 17 17 16 16 17 17 19 20 20 21 21 21 22 22 23 24 25 25 26 27 28 28 29 29 29
13 13 13 14 15 15 16 16 16 16 16 16 17 18 18 17 18 19 20 20 20 21 21 22 23 24 24 25 26 27 27 27 29 29 30 30 31 31
13 14 14 15 15 15 16 17 17 18 18 19 19 19 20 20 21 21 22 22 23 23 24 24 25 26 27 28 29 29 29 30 30 30 30 31 32 33
15 15 16 17 17 17 18 18 19 19 19 20 20 20 22 23 23 24 24 24 25 26 26 27 28 29 29 30 30 29 30 30 31 31 32 33 33 34
16 16 17 18 18 18 18 19 20 20 21 21 22 22 23 23 25 26 26 26 27 27 28 28 29 30 31 31 31 31 31 32 33 34 34 34 35 36
17 18 18 19 19 20 20 20 21 21 22 22 23 24 25 26 27 28 28 28 28 29 29 29 30 31 31 32 32 32 33 33 34 35 35 37 38 38
18 19 20 20 20 20 21 21 22 23 24 24 25 25 26 27 28 29 29 29 30 30 30 29 30 31 31 32 33 34 35 36 37 37 38 39 40 41
19 20 20 20 20 21 22 23 23 24 24 25 26 27 28 28 28 29 30 29 30 30 30 31 31 31 32 33 33 35 36 37 37 38 40 40 41 42
19 19 19 20 21 22 23 23 23 24 25 26 26 27 27 28 29 30 30 30 30 31 31 32 32 32 33 34 35 36 36 37 37 38 39 40 41 41
20 20 21 22 23 23 23 23 24 25 26 26 27 27 28 29 30 31 31 31 31 32 32 33 33 34 34 35 36 37 37 38 39 39 40 40 41 42
21 22 23 23 23 24 24 24 25 26 27 27 28 29 30 30 30 31 31 31 32 32 33 34 34 35 35 36 37 37 38 39 39 39 40 41 41 41
22 23 24 24 25 25 26 26 27 28 29 29 29 30 31 31 31 31 32 33 33 33 34 35 36 36 36 37 38 39 39 39 39 39 40 40 40 40
23 24 24 24 25 26 26 27 28 29 29 29 29 30 31 31 32 32 33 33 34 34 35 35 36 37 38 38 38 39 39 39 39 39 40 40 40 39
23 24 24 24 25 26 27 27 28 29 29 29 30 31 32 32 32 33 33 34 35 35 36 36 36 37 38 38 38 39 38 38 39 39 39 39 38 38
24 24 25 25 26 27 28 29 29 29 30 30 32 32 33 33 33 34 34 35 35 36 36 37 37 37 38 38 38 38 38 38 38 38 38 38 38 38
25 25 26 27 27 28 29 30 30 31 31 32 33 33 33 34 34 35 35 35 36 36 36 37 37 38 38 38 37 37 37 37 37 37 37 37 37 37
26 27 27 28 29 29 30 31 31 32 33 33 33 34 34 35 35 36 35 35 36 37 37 37 38 38 37 37 36 36 36 36 36 36 36 36 36 36
28 28 29 29 30 30 31 32 32 33 33 34 34 35 35 35 36 36 36 36 36 37 37 36 36 36 37 37 36 36 36 36 36 35 35 36 36 35
28 29 30 31 31 32 32 33 33 33 34 34 34 35 35 35 35 36 36 37 37 37 36 36 36 36 37 36 36 36 36 35 35 35 35 35 35 35
30 31 32 32 33 33 33 33 34 34 34 34 34 35 35 35 36 36 36 37 37 37 36 36 36 37 37 37 36 36 36 35 35 35 35 34 34 34
31 32 33 33 33 33 33 34 34 34 34 34 35 35 36 35 35 36 36 36 36 37 36 36 36 37 37 36 36 35 35 35 35 34 34 34 33 33
32 32 33 33 33 33 33 33 33 34 34 34 35 35 35 35 35 36 36 36 36 37 36 36 36 36 36 36 36 35 35 35 34 34 34 33 33 32
32 32 32 32 32 33 33 33 34 34 34 34 35 35 35 35 35 36 36 36 36 36 36 36 36 35 35 36 35 35 34 33 33 33 33 33 33 32
Wind_Direction
299 300 303 305 304 301 300 300 301 302 304 303 302 303 301 299 301 302 300 298 294 294 293 289 289 288 288 286 284 283 280 281 280 278 277 276 274 273
300 302 305 306 305 303 301 301 302 304 305 302 301 302 304 305 303 301 300 299 296 294 292 291 290 289 288 287 285 284 282 281 280 280 279 278 277 275
309 306 306 306 306 306 300 299 301 301 302 301 299 299 301 303 303 302 300 298 297 296 294 294 292 290 288 287 286 283 282 281 281 281 282 281 280 278
310 305 305 304 303 304 302 298 297 299 299 299 298 297 299 300 300 300 300 299 298 297 296 294 293 290 291 289 286 284 283 282 280 280 279 281 282 280
308 307 305 302 301 304 304 303 301 300 299 302 302 301 301 301 301 301 300 299 298 297 295 294 293 291 290 288 285 284 284 284 282 281 281 281 281 282
307 306 305 304 302 303 304 304 304 304 305 305 303 302 301 301 301 301 301 300 298 297 296 295 294 291 290 288 285 284 285 285 284 283 283 282 282 282
306 308 307 305 305 304 305 305 304 304 305 305 304 303 302 302 301 301 301 301 302 301 299 298 297 295 293 291 288 287 287 286 285 284 283 283 283 282
308 309 306 304 305 305 303 304 304 304 305 304 304 305 304 303 303 303 303 303 303 303 302 301 299 298 297 296 293 292 291 290 288 287 285 284 283 282
312 310 309 308 308 307 307 307 307 305 305 305 305 304 303 303 303 303 302 303 303 304 303 302 301 300 299 297 295 295 294 293 292 290 288 286 284 283
311 309 309 308 308 308 308 307 306 305 305 306 305 305 306 306 304 302 302 303 303 303 303 302 301 300 299 299 298 296 296 295 293 292 290 288 287 285
310 309 309 309 309 309 309 308 307 307 307 307 307 307 307 307 306 305 304 303 303 303 302 302 301 300 300 300 299 298 297 296 295 293 292 291 289 287
310 309 310 310 310 311 309 308 307 308 308 308 307 307 307 307 307 306 306 304 303 303 303 302 301 301 300 300 299 299 298 297 296 295 294 293 291 290
310 310 310 311 311 312 311 309 308 308 308 308 308 308 308 308 308 307 307 306 304 304 303 302 302 301 301 301 300 300 299 299 297 296 295 293 292 291
309 311 311 311 312 312 311 311 311 310 310 309 309 309 309 309 308 309 308 308 306 305 304 303 303 303 302 302 302 301 301 300 299 298 296 295 294 292
309 310 312 312 312 313 313 312 312 312 311 310 310 310 309 309 308 308 308 308 308 307 306 305 304 304 304 304 304 302 302 301 300 299 297 296 295 293
311 312 313 313 313 313 313 312 312 312 312 311 311 311 310 310 310 310 309 308 308 308 307 305 305 304 305 305 305 304 303 303 302 301 299 299 297 295
313 313 313 312 313 313 313 313 313 312 312 312 312 312 312 311 311 311 311 310 309 309 309 308 307 306 306 307 306 306 306 305 305 304 302 301 299 298
312 313 313 313 313 313 312 312 313 313 312 312 312 312 312 312 311 311 311 311 311 312 312 311 310 309 308 307 307 307 307 307 306 305 304 303 301 300
311 312 313 314 313 313 312 312 312 312 312 312 312 313 313 313 312 312 312 313 313 314 313 313 312 311 311 309 308 307 307 307 307 306 305 304 303 302
311 312 312 313 313 313 313 313 313 313 312 312 313 314 314 314 313 313 314 314 314 314 314 314 313 312 312 311 310 309 308 308 308 308 307 306 305 304
311 312 313 313 314 313 313 313 313 313 314 314 314 314 314 314 314 314 314 315 315 315 315 315 315 313 313 313 312 311 310 309 309 309 309 307 306 305
311 313 313 314 314 314 314 313 313 314 315 315 315 315 315 315 314 314 315 315 315 315 316 316 317 315 314 314 314 313 312 311 311 310 309 308 308 307
312 314 315 315 315 315 315 315 315 316 316 315 315 315 315 315 315 315 316 316 316 317 317 317 318 318 317 316 315 314 313 312 312 311 311 310 309 309